• In United Kingdom
  • List of Countries
  • For 7 days
  • Water Temperature
  • Satellite Maps
  • Weather Map
  • Weather Widgets
  • user-avatar
    Login

    Hourly Weather Koshelevo

    Today, 16 July, Monday

    Time Temperature Precipitation Wind Pressure Humidity
    00:00 +18°C° 0.1 mm 2 mps 744 mmHg 96%
    01:00 +18°C° 0.1 mm 2 mps 744 mmHg 96%
    02:00 +17°C° 0.1 mm 2 mps 744 mmHg 96%
    03:00 +17°C° 0.1 mm 2 mps 744 mmHg 97%
    04:00 +17°C° 0.1 mm 2 mps 744 mmHg 97%
    05:00 +17°C° 0.1 mm 3 mps 744 mmHg 97%
    06:00 +18°C° 0.8 mm 3 mps 744 mmHg 94%
    07:00 +19°C° 0.8 mm 3 mps 744 mmHg 91%
    08:00 +21°C° 0.8 mm 4 mps 744 mmHg 88%
    09:00 +22°C° 1.4 mm 4 mps 744 mmHg 84%
    10:00 +22°C° 1.4 mm 4 mps 744 mmHg 80%
    11:00 +23°C° 1.4 mm 4 mps 744 mmHg 75%
    12:00 +25°C° 1 mm 4 mps 743 mmHg 76%
    13:00 +25°C° 1 mm 4 mps 743 mmHg 76%
    14:00 +25°C° 1 mm 4 mps 743 mmHg 76%
    15:00 +25°C° 0.8 mm 4 mps 743 mmHg 78%
    16:00 +23°C° 0.8 mm 4 mps 742 mmHg 80%
    17:00 +23°C° 0.8 mm 4 mps 742 mmHg 82%
    18:00 +22°C° 0.2 mm 3 mps 742 mmHg 85%
    19:00 +21°C° 0.2 mm 3 mps 742 mmHg 89%
    20:00 +20°C° 0.2 mm 2 mps 742 mmHg 92%
    21:00 +19°C° 0 mm 2 mps 742 mmHg 93%
    22:00 +18°C° 0 mm 2 mps 742 mmHg 95%
    23:00 +17°C° 0 mm 2 mps 741 mmHg 96%

    Tomorrow, 17 July, Tuesday

    Time Temperature Precipitation Wind Pressure Humidity
    00:00 +18°C° 0 mm 1 mps 741 mmHg 96%
    01:00 +18°C° 0 mm 1 mps 741 mmHg 96%
    02:00 +18°C° 0 mm 1 mps 741 mmHg 96%
    03:00 +18°C° 0 mm 1 mps 741 mmHg 96%
    04:00 +18°C° 0 mm 1 mps 741 mmHg 97%
    05:00 +17°C° 0 mm 2 mps 741 mmHg 97%
    06:00 +17°C° 0.1 mm 2 mps 741 mmHg 95%
    07:00 +18°C° 0.1 mm 2 mps 741 mmHg 94%
    08:00 +19°C° 0.1 mm 2 mps 741 mmHg 92%
    09:00 +19°C° 0.2 mm 2 mps 741 mmHg 91%
    10:00 +20°C° 0.2 mm 2 mps 741 mmHg 91%
    11:00 +20°C° 0.2 mm 2 mps 741 mmHg 90%
    12:00 +21°C° 0.2 mm 2 mps 741 mmHg 89%
    13:00 +21°C° 0.2 mm 3 mps 741 mmHg 89%
    14:00 +21°C° 0.2 mm 3 mps 741 mmHg 88%
    15:00 +22°C° 0.7 mm 3 mps 740 mmHg 89%
    16:00 +22°C° 0.7 mm 3 mps 740 mmHg 89%
    17:00 +22°C° 0.7 mm 3 mps 740 mmHg 90%
    18:00 +22°C° 1.6 mm 3 mps 740 mmHg 91%
    19:00 +21°C° 1.6 mm 4 mps 740 mmHg 92%
    20:00 +21°C° 1.6 mm 4 mps 740 mmHg 93%
    21:00 +21°C° 1.4 mm 3 mps 740 mmHg 94%
    22:00 +21°C° 1.4 mm 3 mps 740 mmHg 95%
    23:00 +20°C° 1.4 mm 3 mps 740 mmHg 96%

    Day after tomorrow, 18 July, Wednesday

    Time Temperature Precipitation Wind Pressure Humidity
    00:00 +20°C° 0.4 mm 3 mps 740 mmHg 96%
    01:00 +20°C° 0.4 mm 3 mps 740 mmHg 96%
    02:00 +20°C° 0.4 mm 3 mps 739 mmHg 97%
    03:00 +20°C° 0.1 mm 3 mps 739 mmHg 97%
    04:00 +19°C° 0.1 mm 3 mps 739 mmHg 97%
    05:00 +19°C° 0.1 mm 3 mps 740 mmHg 97%
    06:00 +20°C° 0 mm 3 mps 740 mmHg 94%
    07:00 +21°C° 0 mm 3 mps 740 mmHg 92%
    08:00 +22°C° 0 mm 3 mps 740 mmHg 89%
    09:00 +25°C° 0.1 mm 4 mps 740 mmHg 84%
    10:00 +26°C° 0.1 mm 4 mps 740 mmHg 79%
    11:00 +27°C° 0.1 mm 4 mps 740 mmHg 74%
    12:00 +28°C° 0.6 mm 4 mps 740 mmHg 73%
    13:00 +28°C° 0.6 mm 4 mps 740 mmHg 73%
    14:00 +28°C° 0.6 mm 4 mps 740 mmHg 73%
    15:00 +28°C° 1.3 mm 4 mps 740 mmHg 75%
    16:00 +28°C° 1.3 mm 4 mps 740 mmHg 76%
    17:00 +28°C° 1.3 mm 3 mps 740 mmHg 78%
    18:00 +27°C° 1.1 mm 3 mps 741 mmHg 82%
    19:00 +26°C° 1.1 mm 3 mps 741 mmHg 86%
    20:00 +24°C° 1.1 mm 3 mps 741 mmHg 90%
    21:00 +24°C° 0.8 mm 2 mps 741 mmHg 92%
    22:00 +23°C° 0.8 mm 2 mps 742 mmHg 94%
    23:00 +21°C° 0.8 mm 2 mps 742 mmHg 96%

    19 July, Thursday

    Time Temperature Precipitation Wind Pressure Humidity
    00:00 +21°C° 0.1 mm 3 mps 742 mmHg 96%
    01:00 +21°C° 0.1 mm 3 mps 742 mmHg 97%
    02:00 +21°C° 0.1 mm 3 mps 742 mmHg 97%
    03:00 +20°C° 0 mm 3 mps 742 mmHg 97%
    04:00 +20°C° 0 mm 4 mps 743 mmHg 97%
    05:00 +20°C° 0 mm 4 mps 743 mmHg 97%
    06:00 +20°C° 0.1 mm 4 mps 743 mmHg 96%
    07:00 +20°C° 0.1 mm 4 mps 743 mmHg 95%
    08:00 +20°C° 0.1 mm 5 mps 743 mmHg 94%
    09:00 +21°C° 0.1 mm 5 mps 744 mmHg 93%
    10:00 +21°C° 0.1 mm 5 mps 744 mmHg 91%
    11:00 +22°C° 0.1 mm 5 mps 744 mmHg 89%
    12:00 +23°C° 0.1 mm 5 mps 744 mmHg 86%
    13:00 +25°C° 0.1 mm 5 mps 744 mmHg 83%
    14:00 +25°C° 0.1 mm 5 mps 744 mmHg 80%
    15:00 +26°C° 0.4 mm 5 mps 744 mmHg 79%
    16:00 +26°C° 0.4 mm 6 mps 744 mmHg 78%
    17:00 +26°C° 0.4 mm 6 mps 744 mmHg 77%
    18:00 +25°C° 0.1 mm 5 mps 744 mmHg 80%
    19:00 +23°C° 0.1 mm 5 mps 744 mmHg 84%
    20:00 +22°C° 0.1 mm 4 mps 744 mmHg 87%
    21:00 +22°C° 0 mm 4 mps 745 mmHg 89%
    22:00 +21°C° 0 mm 4 mps 745 mmHg 91%
    23:00 +20°C° 0 mm 4 mps 745 mmHg 93%

    20 July, Friday

    Time Temperature Precipitation Wind Pressure Humidity
    00:00 +19°C° 0 mm 4 mps 745 mmHg 94%
    01:00 +19°C° 0 mm 4 mps 745 mmHg 95%
    02:00 +18°C° 0 mm 4 mps 745 mmHg 96%
    03:00 +18°C° 0 mm 4 mps 745 mmHg 95%
    04:00 +18°C° 0 mm 4 mps 746 mmHg 94%
    05:00 +17°C° 0 mm 5 mps 746 mmHg 94%
    06:00 +18°C° 0 mm 4 mps 746 mmHg 92%
    07:00 +18°C° 0 mm 4 mps 746 mmHg 91%
    08:00 +19°C° 0 mm 4 mps 746 mmHg 90%
    09:00 +20°C° 0 mm 4 mps 746 mmHg 85%
    10:00 +21°C° 0 mm 4 mps 746 mmHg 81%
    11:00 +23°C° 0 mm 4 mps 747 mmHg 76%
    12:00 +25°C° 0 mm 4 mps 746 mmHg 72%
    13:00 +26°C° 0 mm 4 mps 746 mmHg 67%
    14:00 +27°C° 0 mm 5 mps 746 mmHg 62%
    15:00 +27°C° 0 mm 5 mps 746 mmHg 62%
    16:00 +27°C° 0 mm 5 mps 746 mmHg 62%
    17:00 +27°C° 0 mm 5 mps 746 mmHg 62%
    18:00 +26°C° 0 mm 4 mps 746 mmHg 68%
    19:00 +25°C° 0 mm 3 mps 746 mmHg 74%
    20:00 +22°C° 0 mm 3 mps 746 mmHg 79%
    21:00 +21°C° 0 mm 3 mps 746 mmHg 83%
    22:00 +20°C° 0 mm 3 mps 746 mmHg 86%
    23:00 +19°C° 0 mm 3 mps 746 mmHg 90%

    21 July, Saturday

    Time Temperature Precipitation Wind Pressure Humidity
    00:00 +18°C° 0 mm 3 mps 746 mmHg 91%
    01:00 +18°C° 0 mm 3 mps 746 mmHg 92%
    02:00 +17°C° 0 mm 3 mps 746 mmHg 94%
    03:00 +16°C° 0 mm 2 mps 746 mmHg 93%
    04:00 +16°C° 0 mm 2 mps 746 mmHg 93%
    05:00 +15°C° 0 mm 2 mps 746 mmHg 92%
    06:00 +16°C° 0 mm 2 mps 746 mmHg 87%
    07:00 +18°C° 0 mm 2 mps 746 mmHg 81%
    08:00 +19°C° 0 mm 2 mps 747 mmHg 75%
    09:00 +21°C° 0 mm 2 mps 746 mmHg 69%
    10:00 +24°C° 0 mm 2 mps 746 mmHg 64%
    11:00 +25°C° 0 mm 2 mps 746 mmHg 58%
    12:00 +26°C° 0 mm 2 mps 746 mmHg 54%
    13:00 +27°C° 0 mm 2 mps 746 mmHg 51%
    14:00 +27°C° 0 mm 2 mps 746 mmHg 48%
    15:00 +27°C° 0 mm 2 mps 745 mmHg 48%
    16:00 +27°C° 0 mm 2 mps 745 mmHg 49%
    17:00 +27°C° 0 mm 2 mps 745 mmHg 49%
    18:00 +26°C° 0 mm 2 mps 745 mmHg 55%
    19:00 +24°C° 0 mm 2 mps 745 mmHg 61%
    20:00 +22°C° 0 mm 1 mps 745 mmHg 68%
    21:00 +22°C° 0 mm 1 mps 745 mmHg 70%
    22:00 +21°C° 0 mm 1 mps 745 mmHg 72%
    23:00 +20°C° 0 mm 1 mps 745 mmHg 75%
    Show more